Location: Czachówek
(51.9636°N, 21.0864°E)
Time: 16:53:04
(UTC+01:00)

ISS - Visible Passes

Search period start: 16 January 2019 00:00
Search period end: 26 January 2019 00:00
Orbit: 404 x 407 km, 51.6° (Epoch: 17 January)

Date Brightness Start Highest point End Pass type
(mag) Time Alt. Az. Time Alt. Az. Time Alt. Az.
23 Jan -1.3 18:37:18 10° SSW 18:38:06 15° SSW 18:38:06 15° SSW visible
24 Jan -1.8 17:46:08 10° S 17:48:15 16° SE 17:48:29 16° SE visible
24 Jan -0.5 19:21:02 10° WSW 19:21:11 11° WSW 19:21:11 11° WSW visible
25 Jan -1.3 16:56:04 10° SE 16:56:33 10° SE 16:57:01 10° SE visible
25 Jan -2.5 18:29:16 10° SW 18:31:29 32° SSW 18:31:29 32° SSW visible
